| time (UTC) | temp F | wind direction | speed MPH | gust MPH | rain 1hr in | rain 24hr in | rain mn in | humidity % | barometer mb |
| 20260505004031 | 75 | 11 | 8.0 | 17.0 | 0.00 | 0.00 | 0.00 | 26 | 1010.1 |
| 20260505003520 | 75 | 9 | 9.0 | 17.0 | 0.00 | 0.00 | 0.00 | 27 | 1010.2 |
| 20260505003038 | 75 | 22 | 7.0 | 16.0 | 0.00 | 0.00 | 0.00 | 28 | 1010.3 |
| 20260505002526 | 75 | 360 | 9.0 | 16.0 | 0.00 | 0.00 | 0.00 | 26 | 1010.2 |
| 20260505002019 | 75 | 12 | 9.0 | 15.0 | 0.00 | 0.00 | 0.00 | 25 | 1010.2 |
| 20260505001533 | 75 | 22 | 6.0 | 14.0 | 0.00 | 0.00 | 0.00 | 28 | 1010.3 |
| 20260505001031 | 75 | 9 | 10.0 | 14.0 | 0.00 | 0.00 | 0.00 | 26 | 1010.2 |
| 20260505000534 | 75 | 32 | 6.0 | 14.0 | 0.00 | 0.00 | 0.00 | 25 | 1010.3 |
| 20260505000032 | 75 | 27 | 7.0 | 17.0 | 0.00 | 0.00 | 0.00 | 26 | 1010.4 |
| 20260504235520 | 75 | 309 | 10.0 | 17.0 | 0.00 | 0.00 | 0.00 | 26 | 1010.3 |
| 20260504235030 | 75 | 355 | 9.0 | 15.0 | 0.00 | 0.00 | 0.00 | 26 | 1010.3 |
| 20260504234527 | 75 | 313 | 8.0 | 15.0 | 0.00 | 0.00 | 0.00 | 27 | 1010.4 |
| 20260504234040 | 75 | 31 | 6.0 | 18.0 | 0.00 | 0.00 | 0.00 | 26 | 1010.4 |
| 20260504233525 | 76 | 42 | 11.0 | 18.0 | 0.00 | 0.00 | 0.00 | 26 | 1010.4 |
| 20260504233022 | 76 | 13 | 9.0 | 15.0 | 0.00 | 0.00 | 0.00 | 27 | 1010.4 |
| 20260504232534 | 76 | 5 | 6.0 | 16.0 | 0.00 | 0.00 | 0.00 | 26 | 1010.4 |
| 20260504232021 | 77 | 360 | 10.0 | 14.0 | 0.00 | 0.00 | 0.00 | 27 | 1010.4 |
| 20260504231518 | 76 | 360 | 4.0 | 13.0 | 0.00 | 0.00 | 0.00 | 28 | 1010.4 |
| 20260504231026 | 76 | 355 | 8.0 | 13.0 | 0.00 | 0.00 | 0.00 | 27 | 1010.3 |
| 20260504230519 | 76 | 19 | 7.0 | 19.0 | 0.00 | 0.00 | 0.00 | 28 | 1010.3 |
| 20260504230036 | 75 | 22 | 8.0 | 19.0 | 0.00 | 0.00 | 0.00 | 27 | 1010.4 |
| 20260504225529 | 74 | 329 | 3.0 | 19.0 | 0.00 | 0.00 | 0.00 | 29 | 1010.5 |
| 20260504225034 | 75 | 5 | 11.0 | 19.0 | 0.00 | 0.00 | 0.00 | 28 | 1010.6 |
| 20260504224531 | 76 | 343 | 10.0 | 17.0 | 0.00 | 0.00 | 0.00 | 27 | 1010.5 |
| 20260504224022 | 76 | 292 | 8.0 | 17.0 | 0.00 | 0.00 | 0.00 | 27 | 1010.4 |
| 20260504223530 | 76 | 327 | 9.0 | 17.0 | 0.00 | 0.00 | 0.00 | 26 | 1010.5 |
| 20260504223034 | 76 | 324 | 8.0 | 17.0 | 0.00 | 0.00 | 0.00 | 26 | 1010.5 |
| 20260504222536 | 76 | 360 | 12.0 | 16.0 | 0.00 | 0.00 | 0.00 | 25 | 1010.5 |
| 20260504222025 | 76 | 310 | 7.0 | 14.0 | 0.00 | 0.00 | 0.00 | 26 | 1010.4 |
| 20260504221520 | 76 | 320 | 6.0 | 12.0 | 0.00 | 0.00 | 0.00 | 26 | 1010.4 |
| 20260504221031 | 76 | 14 | 8.0 | 12.0 | 0.00 | 0.00 | 0.00 | 25 | 1010.4 |
| 20260504220524 | 76 | 331 | 6.0 | 12.0 | 0.00 | 0.00 | 0.00 | 26 | 1010.4 |
| 20260504220047 | 76 | 287 | 5.0 | 13.0 | 0.00 | 0.00 | 0.00 | 27 | 1010.4 |
| 20260504215526 | 76 | 351 | 6.0 | 13.0 | 0.00 | 0.00 | 0.00 | 28 | 1010.4 |
| 20260504215036 | 75 | 35 | 6.0 | 15.0 | 0.00 | 0.00 | 0.00 | 28 | 1010.6 |
| 20260504214530 | 75 | 360 | 8.0 | 16.0 | 0.00 | 0.00 | 0.00 | 30 | 1010.6 |
| 20260504214022 | 75 | 355 | 6.0 | 16.0 | 0.00 | 0.00 | 0.00 | 31 | 1010.7 |
| 20260504213530 | 75 | 5 | 8.0 | 18.0 | 0.00 | 0.00 | 0.00 | 30 | 1010.7 |
| 20260504213029 | 75 | 332 | 11.0 | 19.0 | 0.00 | 0.00 | 0.00 | 30 | 1010.7 |
| 20260504212537 | 75 | 343 | 11.0 | 19.0 | 0.00 | 0.00 | 0.00 | 29 | 1010.7 |
| 20260504212027 | 75 | 333 | 8.0 | 15.0 | 0.00 | 0.00 | 0.00 | 31 | 1010.6 |
| 20260504211523 | 75 | 16 | 9.0 | 15.0 | 0.00 | 0.00 | 0.00 | 30 | 1010.7 |
| 20260504211031 | 75 | 336 | 8.0 | 15.0 | 0.00 | 0.00 | 0.00 | 30 | 1010.7 |
| 20260504210524 | 75 | 5 | 6.0 | 13.0 | 0.00 | 0.00 | 0.00 | 31 | 1010.7 |
| 20260504210020 | 75 | 360 | 8.0 | 16.0 | 0.00 | 0.00 | 0.00 | 31 | 1010.6 |
| 20260504205529 | 75 | 355 | 8.0 | 14.0 | 0.00 | 0.00 | 0.00 | 32 | 1010.8 |
| 20260504205020 | 75 | 5 | 6.0 | 12.0 | 0.00 | 0.00 | 0.00 | 32 | 1010.7 |
| 20260504204522 | 75 | 336 | 7.0 | 14.0 | 0.00 | 0.00 | 0.00 | 32 | 1010.8 |
| 20260504204028 | 75 | 346 | 8.0 | 14.0 | 0.00 | 0.00 | 0.00 | 31 | 1010.7 |
| 20260504203540 | 75 | 5 | 7.0 | 13.0 | 0.00 | 0.00 | 0.00 | 32 | 1010.7 |
| 20260504203034 | 75 | 338 | 3.0 | 13.0 | 0.00 | 0.00 | 0.00 | 32 | 1010.8 |
| 20260504202522 | 75 | 321 | 4.0 | 13.0 | 0.00 | 0.00 | 0.00 | 34 | 1010.8 |
| 20260504202035 | 74 | 338 | 7.0 | 13.0 | 0.00 | 0.00 | 0.00 | 33 | 1010.8 |
| 20260504201532 | 75 | 63 | 4.0 | 12.0 | 0.00 | 0.00 | 0.00 | 34 | 1010.7 |
| 20260504201018 | 74 | 320 | 7.0 | 12.0 | 0.00 | 0.00 | 0.00 | 34 | 1010.7 |
| 20260504200528 | 74 | 294 | 6.0 | 11.0 | 0.00 | 0.00 | 0.00 | 34 | 1010.8 |
| 20260504200024 | 74 | 346 | 6.0 | 11.0 | 0.00 | 0.00 | 0.00 | 34 | 1010.8 |
| 20260504195531 | 74 | 284 | 6.0 | 12.0 | 0.00 | 0.00 | 0.00 | 34 | 1010.9 |
| 20260504195022 | 74 | 304 | 7.0 | 12.0 | 0.00 | 0.00 | 0.00 | 35 | 1010.9 |
| 20260504194520 | 73 | 345 | 6.0 | 12.0 | 0.00 | 0.00 | 0.00 | 35 | 1010.9 |
| 20260504194028 | 73 | 5 | 2.0 | 10.0 | 0.00 | 0.00 | 0.00 | 36 | 1011.0 |
| 20260504193522 | 73 | 20 | 5.0 | 10.0 | 0.00 | 0.00 | 0.00 | 36 | 1011.0 |
| 20260504193018 | 73 | 271 | 2.0 | 9.0 | 0.00 | 0.00 | 0.00 | 36 | 1011.0 |
| 20260504192530 | 73 | 355 | 4.0 | 11.0 | 0.00 | 0.00 | 0.00 | 35 | 1011.1 |
| 20260504192020 | 73 | 340 | 6.0 | 12.0 | 0.00 | 0.00 | 0.00 | 35 | 1011.1 |
| 20260504191540 | 72 | 10 | 7.0 | 12.0 | 0.00 | 0.00 | 0.00 | 36 | 1011.2 |
| 20260504191026 | 73 | 300 | 6.0 | 12.0 | 0.00 | 0.00 | 0.00 | 37 | 1011.2 |
| 20260504190535 | 72 | 315 | 8.0 | 11.0 | 0.00 | 0.00 | 0.00 | 36 | 1011.2 |
| 20260504190036 | 72 | 336 | 6.0 | 14.0 | 0.00 | 0.00 | 0.00 | 38 | 1011.2 |
| 20260504185518 | 72 | 338 | 8.0 | 14.0 | 0.00 | 0.00 | 0.00 | 37 | 1011.3 |
| 20260504185029 | 72 | 328 | 7.0 | 12.0 | 0.00 | 0.00 | 0.00 | 37 | 1011.3 |
| 20260504184533 | 71 | 311 | 5.0 | 10.0 | 0.00 | 0.00 | 0.00 | 37 | 1011.3 |
| 20260504184032 | 71 | 342 | 4.0 | 12.0 | 0.00 | 0.00 | 0.00 | 37 | 1011.3 |
| 20260504183524 | 71 | 355 | 6.0 | 12.0 | 0.00 | 0.00 | 0.00 | 37 | 1011.3 |
| 20260504183019 | 72 | 355 | 4.0 | 9.0 | 0.00 | 0.00 | 0.00 | 38 | 1011.4 |
| 20260504182538 | 71 | 355 | 4.0 | 9.0 | 0.00 | 0.00 | 0.00 | 38 | 1011.4 |
| 20260504182022 | 71 | 315 | 4.0 | 9.0 | 0.00 | 0.00 | 0.00 | 39 | 1011.5 |
| 20260504181522 | 71 | 285 | 4.0 | 8.0 | 0.00 | 0.00 | 0.00 | 39 | 1011.4 |
| 20260504181033 | 71 | 339 | 4.0 | 8.0 | 0.00 | 0.00 | 0.00 | 39 | 1011.4 |
| 20260504180542 | 70 | 298 | 1.0 | 10.0 | 0.00 | 0.00 | 0.00 | 40 | 1011.4 |
| 20260504180032 | 70 | 345 | 5.0 | 10.0 | 0.00 | 0.00 | 0.00 | 41 | 1011.4 |
| 20260504175522 | 70 | 315 | 3.0 | 9.0 | 0.00 | 0.00 | 0.00 | 40 | 1011.3 |
| 20260504175031 | 70 | 340 | 3.0 | 8.0 | 0.00 | 0.00 | 0.00 | 41 | 1011.5 |
| 20260504174526 | 70 | 11 | 2.0 | 10.0 | 0.00 | 0.00 | 0.00 | 43 | 1011.4 |
| 20260504174038 | 69 | 332 | 3.0 | 10.0 | 0.00 | 0.00 | 0.00 | 42 | 1011.5 |
| 20260504173526 | 68 | 339 | 3.0 | 5.0 | 0.00 | 0.00 | 0.00 | 45 | 1011.6 |
| 20260504173022 | 65 | 324 | 1.0 | 5.0 | 0.00 | 0.00 | 0.00 | 53 | 1011.8 |
| 20260504172533 | 64 | 320 | 1.0 | 3.0 | 0.00 | 0.00 | 0.00 | 53 | 1011.8 |
| 20260504172027 | 63 | 159 | 1.0 | 4.0 | 0.00 | 0.00 | 0.00 | 59 | 1011.8 |
| 20260504171523 | 63 | 171 | 2.0 | 3.0 | 0.00 | 0.00 | 0.00 | 59 | 1011.8 |
| 20260504171034 | 65 | 180 | 1.0 | 3.0 | 0.00 | 0.00 | 0.00 | 54 | 1011.7 |
| 20260504170522 | 62 | 328 | 0.0 | 3.0 | 0.00 | 0.00 | 0.00 | 60 | 1011.8 |
| 20260504151021 | 52 | 169 | 0.0 | 1.0 | 0.00 | 0.00 | 0.00 | 82 | 1012.2 |
| 20260504150533 | 52 | 197 | 0.0 | 0.0 | 0.00 | 0.00 | 0.00 | 83 | 1012.1 |
| 20260504141021 | 50 | 246 | 0.0 | 3.0 | 0.00 | 0.00 | 0.00 | 87 | 1011.9 |
| 20260504140528 | 49 | 248 | 1.0 | 3.0 | 0.00 | 0.00 | 0.00 | 88 | 1011.9 |
| 20260504130530 | 49 | 250 | 0.0 | 0.0 | 0.00 | 0.00 | 0.00 | 89 | 1011.5 |
| 20260504110539 | 49 | 239 | 2.0 | 4.0 | 0.00 | 0.00 | 0.00 | 89 | 1011.2 |
| 20260504100523 | 49 | 249 | 1.0 | 3.0 | 0.00 | 0.00 | 0.00 | 87 | 1011.2 |
| 20260504081544 | 53 | 211 | 2.0 | 5.0 | 0.00 | 0.00 | 0.00 | 81 | 1010.9 |
| 20260504081024 | 54 | 207 | 3.0 | 5.0 | 0.00 | 0.00 | 0.00 | 82 | 1010.8 |
| 20260504080531 | 53 | 198 | 3.0 | 5.0 | 0.00 | 0.00 | 0.00 | 82 | 1010.9 |
| 20260504050523 | 58 | 231 | 2.0 | 4.0 | 0.00 | 0.00 | 0.00 | 69 | 1011.3 |
| 20260504045524 | 57 | 269 | 1.0 | 4.0 | 0.00 | 0.00 | 0.00 | 71 | 1011.3 |
| 20260504045035 | 58 | 239 | 2.0 | 4.0 | 0.00 | 0.00 | 0.00 | 70 | 1011.3 |
| 20260504044529 | 58 | 244 | 1.0 | 3.0 | 0.00 | 0.00 | 0.00 | 68 | 1011.4 |
| 20260504044040 | 59 | 242 | 1.0 | 4.0 | 0.00 | 0.00 | 0.00 | 67 | 1011.3 |
| 20260504043527 | 60 | 244 | 2.0 | 4.0 | 0.00 | 0.00 | 0.00 | 67 | 1011.4 |
| 20260504043035 | 61 | 98 | 1.0 | 6.0 | 0.00 | 0.00 | 0.00 | 66 | 1011.4 |
| 20260504042535 | 61 | 78 | 1.0 | 7.0 | 0.00 | 0.00 | 0.00 | 64 | 1011.2 |
| 20260504042023 | 61 | 188 | 4.0 | 7.0 | 0.00 | 0.00 | 0.00 | 62 | 1011.3 |
| 20260504041521 | 62 | 254 | 2.0 | 5.0 | 0.00 | 0.00 | 0.00 | 59 | 1011.3 |
| 20260504041032 | 62 | 175 | 1.0 | 7.0 | 0.00 | 0.00 | 0.00 | 62 | 1011.3 |
| 20260504040521 | 62 | 143 | 3.0 | 7.0 | 0.00 | 0.00 | 0.00 | 58 | 1011.4 |
| 20260504040036 | 63 | 185 | 2.0 | 6.0 | 0.00 | 0.00 | 0.00 | 56 | 1011.4 |
| 20260504035524 | 63 | 184 | 1.0 | 4.0 | 0.00 | 0.00 | 0.00 | 58 | 1011.1 |
| 20260504035035 | 62 | 194 | 2.0 | 3.0 | 0.00 | 0.00 | 0.00 | 62 | 1011.0 |
| 20260504034530 | 62 | 200 | 0.0 | 3.0 | 0.00 | 0.00 | 0.00 | 63 | 1011.0 |
| 20260504034021 | 62 | 197 | 1.0 | 3.0 | 0.00 | 0.00 | 0.00 | 62 | 1010.9 |
| 20260504033528 | 62 | 247 | 2.0 | 3.0 | 0.00 | 0.00 | 0.00 | 64 | 1010.9 |
| 20260504033023 | 62 | 217 | 2.0 | 3.0 | 0.00 | 0.00 | 0.00 | 62 | 1010.9 |
| 20260504032533 | 63 | 184 | 1.0 | 3.0 | 0.00 | 0.00 | 0.00 | 63 | 1011.0 |
| 20260504032024 | 64 | 239 | 0.0 | 3.0 | 0.00 | 0.00 | 0.00 | 57 | 1010.8 |
| 20260504031522 | 64 | 240 | 1.0 | 3.0 | 0.00 | 0.00 | 0.00 | 57 | 1010.7 |
| 20260504031028 | 64 | 244 | 2.0 | 4.0 | 0.00 | 0.00 | 0.00 | 56 | 1010.7 |
| 20260504030520 | 64 | 227 | 1.0 | 3.0 | 0.00 | 0.00 | 0.00 | 56 | 1010.8 |
| 20260504030034 | 64 | 184 | 1.0 | 3.0 | 0.00 | 0.00 | 0.00 | 57 | 1010.8 |
| 20260504025525 | 66 | 210 | 1.0 | 2.0 | 0.00 | 0.00 | 0.00 | 52 | 1010.8 |
| 20260504025036 | 67 | 233 | 1.0 | 2.0 | 0.00 | 0.00 | 0.00 | 45 | 1010.8 |
| 20260504024534 | 68 | 195 | 1.0 | 2.0 | 0.00 | 0.00 | 0.00 | 44 | 1010.9 |
| 20260504024022 | 68 | 195 | 1.0 | 3.0 | 0.00 | 0.00 | 0.00 | 40 | 1010.8 |
| 20260504023530 | 68 | 195 | 1.0 | 3.0 | 0.00 | 0.00 | 0.00 | 41 | 1010.8 |
| 20260504023031 | 69 | 229 | 0.0 | 3.0 | 0.00 | 0.00 | 0.00 | 39 | 1010.8 |
| 20260504022536 | 70 | 143 | 0.0 | 3.0 | 0.00 | 0.00 | 0.00 | 37 | 1010.8 |
| 20260504022026 | 70 | 209 | 1.0 | 3.0 | 0.00 | 0.00 | 0.00 | 38 | 1010.9 |
| 20260504021524 | 71 | 146 | 0.0 | 5.0 | 0.00 | 0.00 | 0.00 | 34 | 1010.9 |
| 20260504021032 | 71 | 144 | 1.0 | 5.0 | 0.00 | 0.00 | 0.00 | 31 | 1010.9 |
| 20260504020526 | 71 | 256 | 2.0 | 3.0 | 0.00 | 0.00 | 0.00 | 37 | 1011.0 |
| 20260504020023 | 71 | 171 | 0.0 | 3.0 | 0.00 | 0.00 | 0.00 | 34 | 1011.1 |
| 20260504015532 | 70 | 202 | 1.0 | 3.0 | 0.00 | 0.00 | 0.00 | 35 | 1011.1 |
| 20260504015021 | 71 | 238 | 0.0 | 2.0 | 0.00 | 0.00 | 0.00 | 39 | 1011.2 |
| 20260504014528 | 73 | 328 | 1.0 | 2.0 | 0.00 | 0.00 | 0.00 | 31 | 1011.2 |
| 20260504014028 | 73 | 328 | 1.0 | 2.0 | 0.00 | 0.00 | 0.00 | 30 | 1011.2 |
| 20260504013518 | 74 | 94 | 1.0 | 2.0 | 0.00 | 0.00 | 0.00 | 27 | 1011.2 |
| 20260504013043 | 74 | 130 | 0.0 | 2.0 | 0.00 | 0.00 | 0.00 | 28 | 1011.2 |
| 20260504012526 | 73 | 319 | 0.0 | 2.0 | 0.00 | 0.00 | 0.00 | 30 | 1011.3 |
| 20260504012035 | 73 | 168 | 0.0 | 3.0 | 0.00 | 0.00 | 0.00 | 32 | 1011.4 |
| 20260504011531 | 73 | 158 | 1.0 | 3.0 | 0.00 | 0.00 | 0.00 | 34 | 1011.5 |
| 20260504011022 | 74 | 313 | 1.0 | 2.0 | 0.00 | 0.00 | 0.00 | 28 | 1011.4 |
| 20260504010533 | 74 | 230 | 1.0 | 2.0 | 0.00 | 0.00 | 0.00 | 30 | 1011.5 |
| 20260504010024 | 74 | 296 | 0.0 | 4.0 | 0.00 | 0.00 | 0.00 | 30 | 1011.5 |
| 20260504005536 | 74 | 110 | 2.0 | 4.0 | 0.00 | 0.00 | 0.00 | 28 | 1011.7 |
| 20260504005025 | 74 | 110 | 0.0 | 4.0 | 0.00 | 0.00 | 0.00 | 31 | 1011.8 |
| 20260504004529 | 73 | 103 | 1.0 | 4.0 | 0.00 | 0.00 | 0.00 | 28 | 1011.8 |